Vertical_Velocity
-3 -2 -3 -3 -2 -3 -6 -4 -1 -1 -6 -8 -7 -6 -5 -6 -7 -8 -6 -4 -3 -3 -3 -5 -5 -5 -2 -2 -3 -4 -4 -3 -3 -4 -5 -5 -4 -3 -2 -2 -2 -2 -2 -2 -1 -1 -0 -0 -0 -0 -0 -0 -0 -0 -0 -0 0 1 1 2 2 2 2 2 2 1 1 0 -0 -1 -2 -2 -3 -3 -3 -3 -3 -3 -3 -3 -3 -3 -3 -3 -3 -2
-4 -5 -3 -3 -2 -2 -5 -7 -5 -3 -1 -5 -8 -9 -7 -5 -6 -8 -8 -5 -4 -3 -2 -2 -4 -5 -4 -3 -2 -3 -4 -3 -3 -3 -4 -4 -4 -3 -2 -2 -2 -2 -2 -1 -1 -1 -0 -0 -1 -1 -1 -1 -1 -1 -1 -0 0 1 2 2 2 2 2 2 1 1 -0 -1 -2 -2 -3 -3 -4 -4 -4 -4 -4 -4 -3 -3 -3 -3 -3 -3 -3 -3
-2 -6 -6 -4 -2 -1 -1 -3 -6 -7 -5 -3 -5 -7 -7 -5 -4 -5 -5 -4 -4 -5 -5 -2 -2 -4 -6 -3 -1 -1 -3 -3 -2 -3 -4 -4 -4 -3 -2 -2 -2 -2 -2 -1 -1 -1 -1 -1 -1 -1 -1 -2 -1 -1 -1 0 1 1 2 2 3 3 3 3 3 3 2 1 0 -1 -2 -2 -3 -4 -4 -5 -5 -4 -4 -3 -3 -3 -3 -3 -3 -3
-0 -3 -6 -4 -3 -3 -2 -0 -1 -4 -6 -5 -5 -6 -6 -5 -4 -3 -3 -2 -2 -3 -5 -2 -2 -3 -5 -3 -1 -0 -2 -2 -2 -2 -3 -4 -3 -3 -2 -2 -2 -2 -2 -2 -2 -2 -1 -1 -1 -2 -2 -2 -1 -1 -0 1 1 2 2 3 3 4 4 5 5 5 4 3 2 1 -0 -1 -2 -3 -3 -4 -4 -4 -4 -4 -3 -2 -2 -2 -2 -3
-1 -2 -5 -3 -3 -3 -4 -3 -3 -3 -3 -5 -5 -4 -1 -3 -3 -4 -3 -3 -2 -2 -3 -2 -2 -2 -3 -3 -1 -0 -1 -2 -2 -2 -3 -3 -3 -2 -1 -1 -1 -2 -2 -2 -2 -2 -2 -2 -2 -2 -2 -1 -1 -0 0 1 2 2 3 3 4 5 5 5 5 4 3 2 1 -0 -1 -1 -1 -2 -2 -3 -3 -3 -4 -3 -3 -2 -2 -1 -1 -1
-3 -1 -0 -2 -2 -2 -0 -1 -3 -4 -4 -7 -8 -6 -0 0 -1 -2 -4 -3 -1 -0 -2 -2 -2 -2 -3 -2 -0 0 -1 -2 -3 -3 -3 -3 -2 -1 -0 -1 -1 -2 -3 -3 -2 -2 -2 -2 -2 -2 -2 -1 -0 0 1 1 2 2 3 4 4 5 5 4 3 2 1 0 -0 -1 -1 -1 -1 -1 -1 -1 -2 -2 -2 -3 -2 -2 -1 -0 -0 -0
-7 -6 -2 -1 -3 -5 -4 -1 0 1 1 -6 -9 -9 -4 -2 0 -0 -4 -4 -2 0 -0 -0 1 0 -3 -3 -2 0 0 -1 -2 -3 -2 -2 -1 -0 0 -0 -1 -2 -3 -3 -2 -2 -2 -2 -2 -2 -1 -1 -0 0 1 1 1 2 3 3 3 3 2 1 1 -0 -1 -1 -1 -1 -1 -1 -1 -0 -0 -0 -0 -1 -1 -1 -1 -1 -0 0 0 0
-5 -8 -9 -5 -3 -3 -6 -10 -8 -3 5 -0 -5 -8 -4 -5 -1 3 2 -3 -4 -3 -3 -1 2 4 2 -2 -3 -2 0 -1 -2 -3 -1 -0 0 0 0 -1 -2 -3 -3 -3 -2 -2 -2 -2 -2 -2 -1 -0 -0 -0 0 0 1 1 2 2 1 0 -0 -1 -1 -2 -1 -1 -1 -1 -1 -1 -1 -1 -0 -0 -0 0 0 0 0 0 0 1 0 0
-2 -2 -6 -8 -6 -1 5 -4 -12 -14 -4 -1 -2 -4 -3 -8 -6 1 11 6 1 -3 -6 -5 -1 3 5 2 -2 -4 -2 -1 -1 -3 -1 1 2 1 0 -0 -2 -2 -3 -3 -3 -3 -3 -3 -2 -2 -1 -1 -1 -0 -0 -0 0 1 0 -0 -1 -2 -2 -3 -3 -3 -2 -2 -2 -2 -2 -2 -2 -2 -1 -1 -0 -0 0 1 1 1 1 1 -0 -1
-6 -4 -2 -5 -7 -5 5 6 -1 -9 -9 -5 -3 -1 2 -6 -11 -10 2 9 9 4 -4 -4 -3 -1 2 4 2 -2 -4 -2 -1 -2 -2 0 2 2 1 -0 -1 -2 -2 -3 -3 -3 -3 -3 -2 -2 -1 -1 -1 -1 -0 -0 0 -0 -1 -2 -3 -3 -4 -3 -3 -3 -3 -3 -3 -3 -3 -3 -3 -3 -2 -2 -1 -0 1 1 1 1 1 0 -0 -1
-7 -7 -5 -5 -6 -7 -5 -1 0 -1 -2 -5 -6 -4 4 4 -4 -12 -13 -0 6 7 2 1 -0 -2 -4 0 2 1 -3 -2 -1 -0 -1 -0 -0 -0 -0 -0 -0 -1 -2 -2 -3 -3 -4 -3 -2 -2 -1 -1 -1 -1 -1 -0 -0 -1 -2 -3 -4 -4 -4 -4 -3 -3 -3 -3 -3 -3 -3 -3 -3 -2 -2 -2 -1 -0 1 1 1 0 0 -0 -1 -1
-5 -4 -2 -3 -3 -4 -5 -6 -5 -3 1 -1 -6 -8 -3 6 4 -3 -11 -6 -1 2 0 3 4 2 -4 -4 -2 -0 -0 -0 0 1 1 -0 -1 -1 -0 0 -0 -1 -2 -2 -3 -3 -4 -3 -2 -1 -1 -2 -2 -1 -1 -1 -1 -2 -3 -4 -4 -4 -4 -3 -3 -3 -3 -3 -3 -2 -2 -2 -2 -2 -2 -1 -0 -0 0 0 0 0 -0 -0 -1 -1
-8 -6 -4 -2 -2 -2 -3 -4 -5 -4 -1 -0 -3 -7 -7 -0 2 0 -5 -3 -2 -1 -4 0 4 5 0 -4 -5 -4 -1 1 2 3 2 -0 -2 -2 -1 1 1 -0 -2 -2 -2 -3 -3 -2 -2 -1 -1 -2 -2 -1 -1 -1 -2 -3 -4 -4 -4 -3 -3 -2 -2 -2 -2 -2 -2 -2 -2 -2 -1 -1 -1 -0 -0 0 0 0 -0 -0 -0 -0 -1 -1
-6 -6 -6 -5 -3 -3 -4 -4 -4 -3 -1 -0 -3 -5 -5 -2 -2 -3 -5 -2 -0 -0 -3 -1 2 4 2 -3 -6 -6 -3 2 4 5 3 -0 -3 -3 -2 1 1 0 -1 -1 -2 -2 -2 -1 -1 -0 -1 -1 -1 -1 -1 -2 -3 -4 -4 -4 -3 -3 -2 -2 -2 -2 -2 -2 -2 -2 -2 -1 -1 -1 -0 -0 0 0 0 0 -0 -0 -1 -1 -1 -1
-4 -3 -4 -3 -3 -2 -2 -3 -5 -5 -2 -0 -2 -4 -4 -2 -1 -1 -5 -3 -1 0 -1 0 2 3 2 -4 -7 -8 -4 2 6 7 5 1 -3 -5 -4 -0 1 1 -1 -2 -2 -2 -1 -0 -0 -0 -0 -0 -0 -1 -1 -2 -3 -3 -3 -3 -2 -2 -2 -1 -2 -2 -2 -2 -2 -2 -2 -1 -1 -1 -0 0 1 1 0 -0 -1 -1 -1 -1 -1 -1
-3 -3 -4 -2 -2 -2 -1 -1 -3 -5 -5 -3 -2 -3 -4 -3 -1 -0 -2 -3 -2 -1 -1 0 3 5 5 -2 -8 -11 -7 1 6 8 7 3 -2 -6 -6 -2 1 1 -0 -2 -2 -2 -1 -0 -0 -0 -0 0 1 0 -0 -1 -2 -2 -1 -1 -1 -1 -1 -1 -1 -2 -2 -2 -2 -2 -2 -1 -1 -0 1 1 1 1 -0 -1 -2 -2 -2 -1 -1 -1
-3 -2 -5 -3 -2 -2 -1 -1 -2 -3 -3 -3 -3 -2 -2 -3 -3 -3 -2 -3 -3 -2 -1 -1 1 3 6 4 -4 -10 -11 -2 4 7 8 5 -0 -5 -7 -3 -0 1 1 -1 -2 -2 -1 -0 -1 -1 -0 1 1 1 1 -0 -0 -0 -0 -1 -1 -1 -2 -2 -2 -2 -2 -3 -3 -3 -2 -2 -1 0 1 1 1 -0 -2 -2 -2 -2 -2 -1 -1 -1
-4 -2 -3 -5 -3 -0 1 -2 -4 -5 -3 -2 -2 -2 -0 -0 -1 -3 -2 -3 -3 -2 -1 -0 -0 0 2 5 1 -5 -10 -4 2 6 9 7 2 -3 -6 -4 -1 1 1 -1 -2 -2 -1 -1 -1 -1 -0 1 2 2 1 0 0 0 -0 -1 -1 -2 -2 -2 -2 -2 -3 -3 -3 -3 -2 -1 -0 0 1 0 -0 -1 -2 -2 -2 -2 -2 -1 -1 -1
-2 -1 -1 -6 -5 -2 4 1 -3 -6 -5 -3 -2 -2 -0 1 1 -0 -2 -3 -3 -3 -2 -0 0 0 -0 2 0 -3 -7 -4 -1 4 7 7 5 -0 -5 -4 -2 0 1 -1 -3 -3 -1 -1 -1 -1 -0 2 2 2 1 1 1 0 -0 -1 -1 -2 -2 -2 -2 -3 -3 -3 -3 -3 -2 -1 -0 0 0 -0 -1 -2 -2 -2 -2 -2 -2 -2 -2 -2
-2 0 4 -4 -7 -6 2 3 1 -3 -5 -4 -3 -2 -1 0 1 1 -0 -2 -2 -2 -3 -1 0 0 -0 0 -0 -3 -5 -4 -2 2 5 7 5 1 -5 -4 -2 0 1 -2 -3 -3 -2 -2 -1 -1 1 2 2 2 1 1 0 0 -0 -1 -1 -1 -2 -2 -3 -3 -4 -4 -4 -3 -2 -1 -1 -0 -1 -1 -2 -2 -2 -2 -2 -2 -2 -2 -2 -2
-3 -0 5 2 -3 -6 -2 1 1 -1 -3 -3 -3 -1 -1 0 1 2 0 -1 -1 -1 -2 -1 -0 -0 -0 0 -0 -2 -4 -4 -2 0 5 8 7 2 -4 -4 -2 1 1 -1 -3 -3 -2 -2 -1 0 2 3 2 1 1 0 0 0 -0 -1 -1 -2 -2 -3 -3 -4 -4 -5 -4 -3 -3 -2 -1 -1 -2 -2 -2 -2 -2 -2 -3 -3 -3 -3 -3 -3
-5 -3 1 2 -0 -2 -3 -1 -0 -0 -2 -3 -3 -2 -1 -0 1 1 1 -0 -1 -1 -0 -0 -0 -0 -1 -1 -1 -2 -4 -5 -4 -1 4 8 9 6 -2 -3 -2 1 2 -1 -2 -3 -2 -2 -1 0 3 3 2 1 0 0 0 0 -0 -1 -1 -2 -2 -3 -4 -5 -5 -5 -5 -4 -3 -3 -2 -2 -2 -2 -2 -3 -3 -3 -4 -4 -4 -4 -3 -3
-3 -3 -1 -0 -0 -1 -1 -1 -1 -1 -1 -2 -2 -2 -1 -1 -0 0 -0 -1 -1 -0 0 1 1 0 -0 -1 -1 -2 -4 -6 -5 -2 3 7 9 8 1 -1 -0 1 2 -0 -2 -2 -1 -2 -1 0 3 2 1 -0 -0 -0 -0 -0 -0 -1 -2 -2 -3 -4 -4 -5 -5 -5 -5 -4 -4 -3 -3 -3 -3 -3 -3 -3 -3 -3 -3 -3 -3 -2 -2 -1
-2 -2 -1 -1 -1 -1 -1 -1 -1 -1 -1 -1 -1 -1 -1 0 0 -0 -1 -2 -2 -1 1 2 2 2 1 0 -0 -1 -5 -7 -6 -3 1 6 8 7 2 -0 0 2 2 -0 -2 -2 -1 -2 -1 -0 2 2 1 -0 -1 -1 -0 -0 -0 -1 -2 -2 -3 -4 -5 -5 -5 -5 -4 -4 -4 -3 -3 -3 -3 -3 -2 -2 -2 -1 -1 -0 -0 0 1 2
-4 -3 -2 -2 -1 -1 -2 -2 -2 -2 -2 -2 -2 -1 -0 1 1 -0 -2 -3 -3 -2 -0 1 2 2 2 2 2 -1 -5 -8 -7 -5 -1 4 7 7 2 -1 -0 2 3 0 -2 -3 -2 -2 -2 -0 1 1 0 -1 -1 -1 -0 -0 -0 -1 -1 -2 -3 -4 -4 -5 -5 -4 -4 -3 -3 -3 -3 -3 -2 -2 -1 -1 -0 0 1 1 2 2 2 3
-5 -4 -3 -3 -2 -2 -2 -2 -2 -3 -3 -3 -3 -2 -1 1 1 1 -1 -3 -3 -2 -0 1 1 2 2 3 2 -0 -5 -7 -8 -5 -2 2 5 5 2 -1 -1 1 3 2 -1 -3 -3 -3 -2 -1 1 1 -0 -1 -1 -1 -1 -0 -0 -1 -1 -2 -3 -4 -4 -4 -4 -4 -3 -3 -3 -3 -2 -2 -1 -1 -0 0 0 1 1 1 1 2 2 3
-4 -4 -3 -3 -2 -2 -2 -2 -2 -3 -3 -4 -4 -4 -3 -1 0 1 -0 -2 -2 -1 -0 -0 1 2 3 4 3 0 -4 -7 -7 -6 -2 2 4 4 1 -0 -0 1 3 3 0 -3 -4 -4 -2 -0 1 1 -0 -1 -1 -1 -1 -0 -0 -1 -1 -2 -3 -3 -3 -3 -3 -3 -2 -2 -1 -1 -1 -0 -0 -0 -0 0 0 0 0 0 1 1 2 3
-3 -3 -3 -3 -3 -2 -2 -2 -2 -3 -3 -4 -4 -4 -4 -2 -1 -1 -1 -2 -1 -1 -1 -1 -0 1 2 4 3 1 -3 -7 -8 -6 -1 2 3 2 1 -0 -0 1 3 4 2 -1 -5 -5 -3 -0 2 1 -0 -1 -1 -1 -1 -1 -0 -1 -1 -2 -2 -3 -3 -2 -2 -1 -1 -0 -0 -0 -0 -0 -0 -0 0 0 0 0 0 0 1 1 2 3
-3 -3 -3 -3 -3 -2 -2 -2 -2 -2 -3 -3 -3 -4 -4 -3 -2 -2 -3 -2 -1 -0 -1 -1 -1 -1 0 3 4 2 -2 -7 -8 -6 -1 2 3 2 1 0 -1 -1 2 5 5 1 -5 -7 -5 -1 1 1 0 -0 -1 -1 -1 -1 -0 -1 -1 -2 -2 -2 -2 -1 -0 -0 -0 -0 -0 -0 -0 -0 -0 -0 0 1 1 1 0 0 0 1 2 2
-2 -3 -3 -3 -3 -3 -2 -2 -2 -2 -2 -3 -3 -3 -3 -3 -2 -2 -3 -2 -1 -0 -1 -1 -2 -2 -1 1 3 3 1 -5 -7 -6 -1 2 2 1 2 1 -1 -2 -0 4 7 5 -2 -8 -8 -5 -1 -0 -0 -0 -0 -0 -0 -0 -0 -1 -1 -2 -3 -2 -2 -1 -0 -0 -0 -1 -1 -1 -1 -1 -0 -0 0 0 0 -0 -1 -1 -2 -0 1 1
-1 -2 -2 -2 -2 -2 -2 -2 -1 -1 -2 -2 -3 -3 -3 -3 -3 -3 -3 -2 -1 -1 -1 -1 -2 -2 -2 -1 1 2 1 -3 -5 -4 -1 1 1 1 2 2 -0 -2 -2 2 6 8 6 -2 -7 -9 -5 -3 -2 -1 -0 1 1 1 1 -0 -1 -2 -3 -3 -2 -1 -1 -1 -1 -1 -1 -1 -1 -0 -0 -0 -0 -0 -1 -1 -2 -3 -3 -2 -1 1
-1 -1 -1 -1 -1 -1 -1 -1 -1 -1 -1 -2 -2 -2 -3 -3 -3 -3 -3 -3 -2 -2 -1 -1 -1 -2 -2 -1 -1 -0 -1 -3 -4 -3 -0 1 1 1 2 2 1 -1 -2 -1 2 5 8 6 -0 -5 -7 -6 -4 -3 -1 0 1 2 2 1 -0 -2 -3 -3 -3 -2 -1 -1 -1 -1 -1 -1 -1 -0 -0 -1 -1 -1 -1 -1 -2 -3 -4 -3 -2 0
-0 -0 -0 -0 -0 -0 -1 -1 -1 -1 -1 -1 -1 -2 -2 -3 -3 -3 -3 -3 -3 -2 -2 -1 -1 -1 -1 -1 -0 -1 -2 -3 -4 -3 -1 0 1 1 3 3 2 1 -0 -1 -0 1 5 6 5 2 -2 -5 -5 -5 -3 -1 0 1 2 2 1 -0 -2 -3 -3 -2 -1 -1 -1 -1 -0 -0 -0 -0 -1 -1 -1 -1 0 -0 -1 -2 -4 -4 -3 -1
-0 -0 -0 0 0 0 -0 -1 -1 -0 -0 -0 -1 -1 -1 -2 -2 -3 -3 -3 -3 -3 -2 -2 -2 -1 -1 -0 0 0 -1 -3 -5 -4 -3 -1 -0 1 3 3 2 1 2 1 1 0 2 3 4 4 3 -1 -4 -5 -5 -3 -1 1 2 2 1 1 -0 -2 -2 -2 -1 -1 -0 -0 0 0 0 0 -0 -0 0 1 2 2 0 -1 -3 -3 -4 -3
-0 -0 -0 0 1 1 -0 -0 -1 -1 -0 -0 -0 -1 -1 -1 -1 -2 -2 -3 -3 -3 -3 -3 -3 -2 -2 -1 0 1 1 -2 -3 -4 -4 -3 -2 -0 2 2 1 1 2 2 2 2 2 2 2 3 4 2 -1 -4 -6 -4 -2 -0 1 1 1 1 0 -1 -1 -1 -1 -0 0 1 1 1 1 1 1 2 2 3 3 2 0 -1 -2 -3 -4 -5
0 -0 -0 0 1 1 0 -0 -0 -1 -1 -1 -1 -1 -1 -1 -1 -1 -2 -2 -2 -2 -3 -3 -3 -3 -3 -2 -1 -0 1 -0 -1 -3 -4 -3 -2 -1 1 1 0 0 0 1 2 2 2 2 2 2 2 3 1 -1 -4 -5 -4 -2 -1 0 1 1 -0 -1 -2 -2 -1 -0 1 1 1 2 2 2 2 2 3 3 2 1 -0 -1 -1 -2 -3 -3
-0 -0 -0 -0 1 1 1 0 -0 -0 -0 -1 -1 -1 -1 -1 -1 -1 -1 -1 -1 -2 -2 -2 -3 -4 -4 -4 -3 -2 -0 -0 -0 -1 -2 -3 -2 -1 -0 -0 -0 -0 -0 -0 0 1 2 3 3 2 2 2 2 1 -1 -3 -4 -3 -3 -1 -0 -0 -1 -3 -3 -4 -3 -2 -0 1 2 1 1 1 2 2 2 1 1 0 -0 -1 -1 -1 -1 -1
-1 -0 -0 -0 0 1 1 1 0 -0 -0 -0 -0 -0 -0 -0 -0 -1 -1 -1 -1 -1 -1 -1 -2 -3 -4 -4 -4 -3 -2 -1 -1 -1 -2 -2 -2 -2 -1 -0 0 0 -0 -1 -1 0 1 2 3 3 4 3 2 1 -0 -1 -2 -2 -2 -1 -1 -1 -3 -4 -5 -5 -5 -3 -2 -0 1 1 0 0 1 1 0 -0 0 0 0 -0 -0 0 1 0
-1 -0 -0 -0 0 1 1 1 0 0 0 -0 -0 -0 -0 -0 -0 -0 -0 -1 -1 -1 -1 -1 -1 -2 -3 -4 -4 -4 -3 -2 -2 -1 -2 -2 -2 -2 -1 -0 0 0 0 -0 -1 -1 -0 0 1 2 3 4 3 2 -1 -2 -2 -2 -0 1 1 -1 -4 -6 -7 -7 -6 -4 -3 -1 -0 1 1 0 0 -1 -1 -1 -1 -0 1 1 1 1 0 -0
-0 -0 -0 -0 -0 0 0 0 0 0 0 0 0 0 0 0 0 0 -0 -1 -1 -1 -1 -1 -1 -1 -2 -4 -4 -4 -4 -3 -2 -2 -2 -2 -2 -2 -2 -1 -1 -0 1 0 -0 -0 -1 -0 0 1 2 3 3 3 1 -2 -3 -2 0 3 3 2 -3 -6 -8 -8 -6 -4 -3 -1 0 2 2 2 0 -1 -2 -2 -2 -1 0 1 0 -0 -1 -0
0 0 0 0 -0 -0 -0 -0 -0 -0 0 0 0 0 0 1 1 1 0 -1 -2 -2 -2 -1 -1 -1 -1 -3 -5 -5 -5 -4 -3 -2 -2 -2 -2 -3 -3 -2 -1 -0 0 1 1 0 -1 -1 -0 0 1 1 2 2 1 -1 -2 -2 -1 2 3 4 2 -2 -5 -6 -4 -3 -1 -0 1 2 2 2 0 -1 -2 -2 -2 -2 -1 -1 -2 -2 -2 -0
-0 0 0 0 -0 -0 -0 -1 -1 -1 -1 -0 -0 0 0 1 1 1 1 0 -0 -1 -1 -1 -0 0 1 -1 -3 -5 -6 -5 -4 -3 -3 -2 -2 -2 -2 -2 -2 -1 -0 1 1 1 0 -0 -0 -0 0 0 1 1 1 -0 -1 -2 -2 -0 2 3 4 1 -2 -4 -3 -1 -0 1 1 1 1 1 0 -0 -0 -1 -1 -1 -1 -1 -2 -2 -1 -0
-0 -0 -0 -0 -0 -0 -1 -1 -1 -1 -1 -1 -1 -0 -0 -0 0 1 1 1 0 0 -0 -0 0 1 2 2 1 -1 -3 -5 -5 -5 -4 -3 -3 -2 -3 -2 -2 -2 -1 -0 1 1 1 1 -0 -0 -1 -0 -0 -0 0 0 -0 -1 -1 -1 -0 1 3 2 -0 -1 -1 0 1 1 1 1 1 0 -0 -0 -0 -0 -0 -0 -0 -0 -0 0 0 0
0 -0 -0 -1 -1 -1 -1 -1 -1 -1 -1 -1 -1 -1 -1 -1 -0 -0 -0 -0 -0 -0 -0 -0 -0 1 1 2 3 3 2 -1 -3 -4 -4 -4 -4 -3 -3 -3 -3 -2 -1 -1 -0 1 2 2 1 0 -0 -1 -1 -2 -1 -0 0 0 -0 -1 -1 -1 -1 -0 0 1 3 3 2 1 -0 -1 -1 -1 -0 -1 -2 -3 -3 -2 -1 -1 -0 -0 -0 -1
0 -0 -0 -1 -1 -1 -0 -0 -0 -0 -0 -0 -1 -1 -1 -1 -1 -1 -1 -1 -1 -0 -0 -1 -0 -0 1 1 2 3 4 3 1 -1 -3 -3 -4 -4 -5 -4 -4 -3 -2 -1 -1 -0 0 1 2 2 1 -0 -2 -3 -3 -1 0 1 1 -1 -2 -3 -4 -4 -2 -0 3 3 3 2 -0 -2 -2 -2 -0 -1 -2 -3 -5 -4 -3 -2 -1 -1 -1 -2
-0 -0 -0 -1 -1 -1 -0 -0 -0 0 -0 -0 -1 -1 -1 -1 -1 -1 -1 -1 -1 -1 -1 -1 -1 -0 -0 -0 0 2 3 4 4 2 1 -1 -2 -3 -4 -5 -4 -3 -3 -2 -1 -1 -0 0 1 2 2 1 -1 -3 -3 -2 -0 1 1 -0 -1 -2 -3 -4 -3 -2 0 1 1 -0 -1 -2 -2 -1 0 0 -1 -2 -4 -5 -4 -2 -1 -0 -1 -1
-0 -0 -0 -1 -1 -1 -1 -0 0 0 0 -0 -1 -1 -2 -1 -1 -1 -1 -1 -1 -1 -0 -0 -0 -0 -1 -1 -1 -0 1 2 3 3 3 2 1 -0 -2 -3 -4 -4 -3 -3 -2 -1 -1 -0 1 2 2 2 1 -1 -3 -2 -2 -1 -0 -0 -1 -1 -1 -2 -2 -2 -1 -1 -2 -3 -3 -2 -1 -0 1 2 1 -1 -3 -4 -4 -3 -1 -0 1 2
-1 -0 -0 -0 -0 -0 -0 -0 0 0 1 0 -0 -1 -2 -2 -2 -1 -1 -1 -1 -1 -0 -0 0 0 -0 -1 -1 -1 -1 -0 1 2 2 3 2 2 0 -1 -2 -3 -3 -3 -2 -2 -1 -1 0 1 2 2 1 0 -1 -1 -2 -2 -2 -2 -2 -1 -0 -0 -1 -2 -2 -3 -4 -4 -4 -3 -1 1 2 3 2 1 -0 -2 -3 -2 -1 0 2 4
-1 -1 -0 -0 -0 -0 -0 -0 0 0 0 0 -0 -1 -2 -2 -2 -2 -2 -2 -1 -1 -1 -0 0 0 1 0 -1 -1 -1 -1 -1 -0 0 1 2 2 1 0 -0 -1 -2 -3 -3 -2 -2 -2 -1 0 2 2 2 1 0 -0 -1 -2 -3 -3 -3 -2 -0 -0 -1 -2 -3 -3 -4 -4 -4 -3 -2 -0 1 1 2 3 3 1 -0 -1 -0 1 3 5
-2 -1 -1 -0 -0 0 0 -0 -0 -0 -0 0 0 -0 -1 -1 -2 -2 -2 -2 -1 -1 -1 -1 -0 -0 0 0 -0 -1 -1 -1 -1 -1 -0 0 1 1 1 0 0 -0 -1 -1 -2 -2 -2 -3 -3 -2 0 2 2 2 2 2 1 -0 -2 -4 -4 -3 -1 -0 -1 -2 -3 -3 -3 -2 -2 -2 -2 -3 -2 -2 0 2 4 3 1 -0 0 2 4 7
-2 -1 -1 -0 -0 -0 -0 -0 -0 -0 -0 -0 -0 -0 -0 -0 -1 -1 -1 -1 -1 -0 -0 -0 -1 -1 -1 -1 -1 -1 -1 -2 -1 -1 -0 -0 0 0 0 -0 -0 0 1 0 -0 -1 -1 -2 -4 -5 -4 -0 1 2 2 3 3 2 1 -2 -4 -4 -2 -1 -1 -2 -3 -3 -2 -1 -1 -1 -2 -3 -3 -2 0 2 4 4 2 1 1 4 7 9
Height
5548 5544 5541 5538 5535 5532 5527 5523 5520 5518 5514 5509 5504 5502 5499 5495 5490 5486 5482 5478 5474 5470 5465 5461 5456 5451 5447 5443 5439 5434 5430 5426 5422 5419 5416 5413 5411 5409 5408 5406 5404 5403 5401 5400 5398 5397 5396 5395 5394 5393 5392 5392 5391 5390 5389 5389 5388 5388 5388 5388 5387 5387 5387 5386 5386 5385 5384 5383 5383 5381 5381 5379 5378 5378 5377 5376 5375 5374 5373 5373 5372 5371 5370 5370 5369 5368
5542 5538 5534 5531 5528 5525 5521 5516 5512 5509 5506 5502 5497 5493 5489 5486 5482 5477 5472 5468 5464 5459 5454 5450 5445 5440 5436 5432 5428 5424 5421 5417 5413 5410 5408 5406 5404 5402 5401 5399 5398 5396 5395 5394 5393 5392 5391 5390 5389 5388 5388 5387 5386 5386 5385 5385 5385 5384 5384 5384 5384 5383 5383 5382 5382 5381 5380 5379 5378 5377 5376 5375 5373 5373 5371 5370 5369 5368 5368 5367 5366 5365 5365 5364 5363 5363
5536 5532 5528 5524 5521 5518 5514 5510 5505 5500 5497 5493 5489 5485 5480 5477 5473 5468 5463 5458 5453 5448 5443 5439 5434 5430 5426 5422 5418 5415 5412 5409 5405 5403 5401 5399 5397 5396 5395 5393 5392 5391 5390 5389 5388 5387 5386 5386 5385 5384 5383 5383 5382 5382 5381 5381 5381 5381 5381 5381 5380 5380 5379 5379 5378 5377 5376 5375 5374 5373 5372 5370 5369 5367 5366 5365 5363 5363 5362 5361 5360 5360 5359 5358 5358 5357
5530 5526 5521 5517 5514 5511 5507 5503 5498 5494 5489 5485 5481 5477 5472 5467 5463 5458 5453 5448 5444 5439 5433 5428 5424 5420 5417 5413 5410 5407 5404 5402 5399 5396 5394 5393 5392 5391 5389 5388 5387 5386 5385 5384 5384 5383 5382 5382 5381 5380 5379 5379 5378 5378 5378 5378 5378 5378 5377 5377 5377 5376 5376 5375 5374 5374 5373 5371 5370 5368 5367 5366 5364 5363 5361 5360 5358 5357 5356 5355 5355 5354 5354 5353 5353 5352
5523 5519 5515 5511 5507 5503 5499 5495 5491 5486 5482 5477 5472 5468 5463 5458 5453 5448 5442 5438 5433 5429 5424 5420 5415 5412 5408 5405 5403 5400 5398 5396 5393 5391 5389 5388 5387 5386 5385 5384 5383 5382 5381 5381 5380 5379 5378 5378 5377 5377 5376 5376 5375 5375 5375 5375 5374 5374 5374 5373 5373 5373 5372 5371 5370 5369 5368 5367 5365 5364 5362 5361 5359 5358 5356 5355 5353 5352 5351 5350 5349 5349 5348 5348 5347 5347
5515 5512 5508 5504 5500 5496 5492 5488 5483 5478 5473 5468 5462 5458 5454 5450 5444 5438 5433 5428 5423 5419 5415 5412 5408 5405 5402 5399 5396 5394 5392 5390 5388 5386 5385 5384 5383 5382 5381 5380 5379 5378 5378 5377 5377 5376 5375 5374 5374 5373 5373 5373 5372 5372 5372 5371 5371 5371 5370 5370 5369 5368 5368 5366 5365 5364 5363 5361 5360 5358 5357 5356 5354 5353 5352 5350 5349 5348 5346 5345 5344 5343 5343 5343 5342 5342
5508 5504 5500 5497 5493 5488 5483 5479 5475 5470 5465 5459 5453 5447 5443 5439 5434 5430 5425 5420 5416 5411 5407 5404 5401 5398 5396 5393 5391 5389 5387 5386 5384 5383 5381 5380 5380 5379 5378 5377 5376 5376 5375 5374 5373 5373 5372 5371 5371 5370 5370 5370 5369 5369 5368 5368 5368 5367 5366 5366 5365 5364 5363 5361 5360 5359 5358 5356 5355 5353 5352 5351 5349 5348 5347 5346 5344 5343 5342 5341 5339 5339 5338 5338 5337 5336
5502 5497 5492 5488 5485 5482 5476 5470 5464 5459 5456 5451 5445 5439 5434 5429 5424 5420 5416 5413 5410 5405 5401 5398 5395 5393 5391 5389 5387 5385 5383 5382 5380 5379 5378 5377 5377 5376 5375 5374 5373 5373 5372 5371 5370 5369 5369 5368 5368 5367 5367 5366 5366 5366 5365 5364 5364 5363 5362 5361 5360 5359 5358 5356 5355 5353 5352 5351 5350 5348 5347 5346 5344 5343 5342 5340 5339 5338 5337 5336 5335 5334 5333 5333 5332 5331
5494 5491 5486 5481 5476 5473 5469 5463 5455 5448 5443 5440 5436 5431 5426 5423 5418 5412 5408 5405 5403 5400 5397 5393 5391 5388 5386 5384 5383 5381 5379 5378 5377 5376 5375 5374 5374 5373 5373 5372 5371 5370 5369 5368 5367 5367 5366 5365 5365 5364 5364 5363 5363 5362 5362 5361 5360 5359 5358 5357 5355 5354 5353 5351 5350 5349 5347 5346 5345 5343 5342 5340 5339 5337 5336 5335 5334 5333 5332 5331 5330 5329 5328 5328 5327 5326
5486 5483 5479 5474 5468 5463 5459 5455 5448 5440 5433 5429 5425 5420 5417 5414 5412 5408 5403 5399 5396 5394 5392 5389 5387 5385 5383 5380 5379 5378 5377 5375 5374 5373 5373 5372 5371 5370 5370 5369 5368 5367 5366 5365 5364 5364 5363 5362 5362 5361 5361 5360 5359 5359 5358 5357 5357 5355 5354 5353 5351 5349 5348 5347 5346 5344 5343 5342 5340 5338 5337 5335 5334 5332 5331 5330 5329 5328 5327 5326 5325 5324 5324 5323 5322 5321
5478 5474 5470 5465 5459 5453 5448 5443 5438 5433 5427 5422 5418 5412 5407 5404 5403 5402 5399 5395 5392 5389 5387 5385 5383 5381 5380 5378 5376 5375 5374 5373 5372 5370 5370 5369 5368 5368 5367 5366 5365 5364 5363 5363 5362 5361 5360 5359 5358 5358 5357 5357 5356 5355 5355 5354 5353 5352 5350 5348 5347 5345 5344 5343 5342 5340 5339 5338 5336 5334 5333 5331 5329 5328 5326 5325 5324 5323 5322 5321 5321 5320 5319 5318 5318 5317
5470 5466 5461 5456 5451 5445 5439 5434 5428 5423 5419 5415 5412 5407 5402 5398 5396 5395 5394 5391 5388 5386 5384 5382 5380 5378 5377 5375 5374 5373 5372 5370 5369 5368 5368 5367 5366 5365 5364 5363 5363 5362 5361 5360 5359 5358 5357 5356 5355 5355 5354 5353 5353 5352 5351 5350 5349 5348 5346 5344 5343 5342 5341 5339 5338 5337 5335 5333 5332 5330 5328 5326 5325 5323 5322 5320 5319 5318 5318 5317 5316 5315 5315 5314 5313 5312
5462 5457 5452 5447 5442 5437 5431 5426 5421 5416 5411 5408 5405 5402 5399 5395 5392 5390 5389 5387 5385 5383 5382 5380 5378 5376 5374 5373 5371 5370 5369 5368 5367 5366 5366 5365 5364 5363 5362 5361 5360 5359 5358 5357 5356 5355 5354 5353 5353 5352 5351 5351 5350 5349 5348 5347 5345 5344 5342 5341 5340 5338 5337 5336 5334 5333 5331 5329 5328 5326 5324 5322 5320 5319 5317 5316 5315 5314 5313 5313 5312 5311 5310 5310 5308 5308
5453 5448 5443 5438 5432 5427 5423 5418 5414 5410 5406 5402 5399 5397 5394 5391 5389 5387 5385 5383 5381 5380 5379 5377 5376 5374 5372 5370 5368 5367 5366 5365 5365 5365 5364 5363 5362 5360 5359 5358 5358 5357 5356 5354 5353 5353 5352 5351 5350 5349 5349 5348 5347 5346 5345 5343 5342 5340 5339 5338 5336 5335 5334 5333 5331 5329 5327 5325 5323 5321 5319 5317 5316 5314 5313 5312 5311 5310 5309 5309 5308 5307 5306 5305 5304 5303
5444 5440 5435 5430 5424 5420 5415 5411 5408 5404 5400 5397 5395 5393 5390 5388 5386 5384 5382 5380 5379 5378 5376 5375 5373 5372 5370 5368 5366 5364 5363 5363 5363 5363 5363 5361 5359 5358 5356 5356 5355 5354 5353 5352 5351 5350 5349 5348 5347 5347 5346 5345 5344 5343 5342 5340 5339 5337 5336 5334 5333 5332 5330 5329 5327 5325 5323 5321 5319 5317 5315 5313 5312 5310 5309 5308 5308 5307 5306 5305 5304 5303 5302 5301 5300 5299
5436 5431 5427 5423 5418 5413 5409 5406 5402 5399 5396 5394 5392 5389 5388 5385 5383 5381 5379 5378 5376 5375 5374 5373 5371 5370 5368 5366 5364 5362 5360 5360 5360 5361 5361 5359 5358 5356 5354 5353 5353 5352 5351 5349 5348 5347 5346 5345 5344 5344 5343 5343 5342 5341 5339 5338 5336 5334 5333 5332 5330 5329 5327 5325 5323 5322 5319 5317 5315 5313 5311 5309 5308 5307 5306 5305 5304 5303 5303 5302 5301 5300 5298 5298 5296 5295
5428 5424 5420 5416 5412 5408 5404 5401 5398 5395 5393 5391 5389 5387 5385 5383 5381 5379 5377 5376 5374 5373 5371 5370 5369 5368 5366 5365 5363 5360 5358 5357 5358 5358 5358 5358 5356 5354 5352 5351 5350 5349 5348 5347 5345 5344 5343 5343 5342 5341 5341 5340 5339 5338 5336 5334 5333 5332 5330 5328 5327 5325 5324 5322 5320 5318 5315 5313 5311 5308 5307 5305 5304 5304 5303 5302 5301 5300 5299 5298 5297 5296 5295 5294 5293 5292
5422 5418 5414 5410 5407 5403 5400 5397 5394 5392 5389 5388 5386 5384 5383 5381 5379 5377 5375 5373 5372 5370 5369 5368 5367 5366 5364 5363 5361 5359 5356 5355 5355 5355 5356 5355 5354 5352 5350 5348 5347 5347 5346 5344 5343 5342 5341 5340 5339 5339 5338 5338 5336 5335 5333 5332 5330 5328 5327 5325 5324 5322 5320 5318 5316 5314 5312 5309 5307 5305 5303 5302 5302 5301 5300 5299 5298 5298 5296 5295 5294 5293 5292 5291 5290 5289
5416 5412 5409 5406 5403 5399 5396 5393 5391 5389 5387 5385 5383 5382 5380 5378 5377 5375 5373 5371 5369 5368 5367 5365 5364 5363 5362 5360 5359 5357 5355 5353 5353 5353 5353 5353 5352 5350 5348 5346 5345 5344 5343 5342 5340 5339 5338 5338 5337 5336 5335 5335 5333 5332 5330 5329 5327 5326 5324 5322 5321 5319 5317 5315 5313 5311 5308 5306 5304 5302 5301 5300 5299 5298 5298 5297 5296 5295 5294 5293 5292 5290 5289 5288 5288 5287
5410 5407 5403 5401 5399 5396 5393 5390 5388 5387 5385 5383 5381 5380 5378 5376 5374 5373 5371 5369 5367 5366 5365 5363 5362 5360 5359 5358 5357 5355 5353 5351 5350 5350 5350 5350 5350 5348 5346 5344 5343 5342 5341 5339 5338 5337 5336 5335 5334 5333 5333 5332 5331 5329 5328 5326 5324 5323 5321 5319 5318 5316 5314 5312 5310 5308 5305 5303 5301 5299 5298 5298 5297 5296 5295 5294 5293 5292 5291 5290 5289 5288 5287 5286 5285 5284
5406 5403 5399 5397 5395 5393 5390 5388 5386 5383 5382 5380 5379 5377 5376 5374 5372 5370 5368 5367 5365 5364 5362 5361 5359 5358 5357 5356 5354 5353 5350 5349 5348 5348 5348 5348 5348 5346 5343 5342 5341 5340 5339 5337 5336 5334 5333 5332 5332 5331 5330 5329 5328 5326 5325 5323 5321 5320 5318 5317 5315 5313 5311 5309 5307 5305 5303 5300 5299 5297 5296 5295 5294 5294 5293 5292 5291 5290 5289 5288 5287 5286 5285 5284 5283 5282
5402 5399 5396 5393 5391 5390 5388 5386 5383 5381 5379 5378 5376 5374 5373 5371 5370 5368 5367 5365 5363 5362 5360 5359 5358 5356 5355 5353 5352 5350 5348 5346 5345 5345 5345 5345 5345 5344 5342 5340 5338 5338 5337 5335 5333 5332 5331 5330 5329 5328 5328 5327 5325 5323 5322 5320 5319 5317 5315 5314 5312 5310 5308 5306 5304 5302 5300 5298 5297 5295 5294 5293 5293 5292 5291 5290 5289 5288 5287 5286 5285 5284 5283 5282 5281 5280
5398 5396 5393 5390 5388 5386 5384 5383 5380 5378 5376 5375 5373 5372 5371 5370 5368 5366 5364 5363 5361 5359 5358 5357 5356 5354 5353 5351 5349 5348 5346 5344 5343 5342 5342 5342 5343 5342 5340 5338 5336 5335 5334 5333 5331 5330 5328 5327 5326 5325 5325 5324 5322 5321 5319 5318 5316 5314 5313 5311 5309 5307 5306 5304 5302 5300 5298 5296 5295 5293 5293 5292 5291 5290 5289 5288 5287 5286 5285 5284 5283 5282 5281 5280 5279 5278
5393 5392 5389 5387 5385 5383 5381 5379 5378 5376 5374 5372 5371 5370 5368 5367 5365 5363 5361 5360 5358 5357 5356 5355 5353 5352 5351 5349 5348 5346 5343 5341 5340 5339 5339 5339 5339 5339 5337 5335 5334 5333 5332 5331 5329 5327 5326 5325 5323 5323 5322 5321 5319 5318 5316 5315 5313 5312 5310 5308 5307 5305 5303 5301 5300 5298 5296 5295 5293 5292 5291 5290 5289 5288 5287 5286 5285 5284 5283 5282 5281 5280 5279 5278 5277 5276
5390 5388 5386 5384 5382 5380 5378 5376 5375 5373 5372 5370 5369 5367 5365 5363 5362 5360 5358 5357 5356 5354 5353 5352 5351 5350 5348 5347 5346 5344 5341 5339 5338 5337 5337 5337 5337 5336 5334 5333 5331 5330 5329 5328 5326 5324 5323 5322 5321 5320 5319 5318 5317 5315 5313 5312 5311 5309 5308 5306 5304 5303 5301 5299 5298 5296 5295 5293 5292 5291 5290 5288 5288 5287 5286 5285 5284 5283 5282 5280 5279 5278 5277 5276 5275 5274
5386 5385 5383 5381 5379 5377 5375 5374 5372 5370 5369 5367 5365 5363 5362 5360 5359 5358 5356 5354 5353 5352 5351 5349 5348 5347 5346 5345 5343 5341 5339 5337 5336 5335 5334 5334 5333 5333 5332 5330 5329 5328 5327 5325 5323 5322 5320 5319 5318 5317 5316 5315 5314 5313 5311 5309 5308 5307 5305 5304 5302 5301 5299 5298 5296 5294 5293 5292 5290 5289 5288 5287 5286 5285 5284 5283 5282 5281 5280 5278 5277 5276 5275 5274 5273 5272
5383 5381 5380 5378 5376 5374 5373 5371 5369 5367 5365 5363 5362 5360 5359 5358 5356 5355 5353 5352 5351 5349 5348 5347 5346 5345 5343 5342 5341 5339 5337 5335 5334 5333 5332 5332 5331 5330 5329 5328 5326 5325 5324 5323 5321 5319 5318 5317 5315 5314 5313 5312 5311 5310 5308 5307 5305 5304 5303 5301 5300 5298 5297 5296 5294 5293 5291 5290 5289 5288 5287 5286 5285 5283 5282 5281 5280 5278 5277 5276 5274 5273 5272 5271 5270 5269
5380 5378 5377 5375 5373 5371 5369 5368 5366 5364 5362 5361 5359 5358 5356 5355 5353 5352 5350 5349 5348 5346 5345 5344 5343 5342 5341 5339 5338 5336 5334 5333 5332 5330 5330 5329 5328 5327 5326 5325 5324 5322 5321 5320 5319 5317 5315 5313 5313 5312 5311 5310 5308 5307 5306 5304 5303 5302 5300 5299 5298 5297 5295 5294 5293 5291 5290 5289 5288 5286 5285 5284 5283 5281 5280 5278 5277 5276 5274 5273 5272 5270 5269 5268 5267 5266
5377 5376 5374 5372 5370 5368 5367 5365 5363 5361 5359 5358 5356 5355 5353 5352 5350 5349 5348 5346 5345 5343 5342 5341 5340 5338 5337 5336 5335 5334 5332 5330 5329 5328 5327 5327 5326 5325 5323 5322 5321 5319 5318 5318 5316 5314 5312 5311 5310 5309 5308 5307 5306 5304 5303 5302 5301 5299 5298 5297 5296 5294 5293 5292 5291 5289 5288 5287 5286 5284 5283 5282 5280 5279 5278 5276 5274 5273 5272 5270 5268 5267 5266 5265 5263 5263
5375 5373 5371 5369 5368 5366 5364 5362 5360 5359 5357 5355 5353 5352 5350 5349 5347 5346 5344 5343 5342 5340 5339 5338 5337 5335 5334 5333 5332 5331 5329 5328 5326 5325 5324 5324 5323 5322 5321 5319 5318 5317 5315 5314 5314 5312 5310 5308 5307 5306 5305 5304 5303 5302 5301 5299 5298 5297 5296 5294 5293 5292 5291 5290 5289 5288 5286 5285 5284 5282 5281 5279 5278 5276 5275 5273 5272 5270 5269 5267 5265 5263 5262 5261 5260 5259
5372 5370 5368 5367 5365 5363 5361 5359 5358 5356 5354 5353 5351 5349 5348 5346 5344 5343 5341 5340 5339 5338 5336 5335 5333 5332 5331 5330 5329 5328 5326 5325 5323 5322 5321 5321 5320 5319 5318 5316 5315 5314 5313 5312 5311 5310 5309 5306 5304 5303 5302 5301 5300 5299 5298 5297 5296 5295 5293 5292 5291 5290 5289 5288 5287 5285 5284 5283 5281 5280 5278 5277 5275 5274 5273 5271 5269 5268 5266 5264 5262 5260 5258 5257 5256 5255
5369 5368 5366 5364 5362 5360 5358 5357 5355 5353 5352 5350 5348 5347 5345 5343 5342 5340 5338 5337 5336 5335 5333 5332 5330 5329 5328 5327 5325 5324 5323 5321 5320 5319 5318 5317 5317 5316 5315 5313 5312 5311 5310 5308 5308 5307 5307 5305 5303 5300 5299 5298 5297 5296 5295 5294 5293 5293 5291 5290 5289 5288 5287 5285 5284 5283 5282 5281 5279 5278 5276 5274 5273 5271 5270 5268 5266 5264 5263 5261 5258 5257 5255 5254 5253 5253
5367 5365 5363 5361 5359 5358 5356 5354 5353 5351 5349 5347 5346 5344 5342 5340 5339 5337 5336 5334 5333 5332 5330 5329 5328 5326 5325 5324 5322 5321 5319 5318 5316 5315 5314 5314 5313 5313 5312 5310 5309 5308 5307 5306 5304 5303 5303 5302 5301 5299 5297 5295 5294 5293 5292 5292 5291 5290 5289 5288 5287 5286 5284 5283 5282 5281 5280 5278 5277 5275 5273 5272 5270 5269 5267 5265 5263 5262 5260 5258 5256 5254 5253 5251 5250 5250
5364 5362 5360 5358 5357 5355 5353 5351 5350 5348 5346 5345 5343 5341 5340 5338 5336 5334 5333 5331 5330 5328 5327 5326 5324 5323 5322 5321 5319 5318 5317 5315 5313 5312 5311 5310 5309 5309 5308 5307 5306 5304 5303 5303 5302 5300 5299 5298 5298 5297 5295 5293 5292 5290 5289 5289 5288 5288 5287 5286 5285 5284 5283 5281 5280 5279 5278 5276 5274 5273 5271 5269 5268 5267 5265 5263 5261 5259 5258 5256 5254 5252 5250 5249 5248 5247
5361 5359 5358 5356 5354 5352 5350 5348 5347 5345 5343 5342 5340 5339 5337 5335 5334 5332 5330 5329 5327 5326 5324 5323 5321 5320 5318 5317 5316 5315 5314 5312 5310 5308 5307 5307 5306 5305 5304 5303 5302 5301 5300 5299 5298 5298 5297 5296 5295 5294 5293 5291 5289 5288 5286 5286 5285 5284 5284 5283 5282 5281 5280 5279 5278 5277 5276 5274 5273 5271 5269 5267 5266 5264 5263 5261 5259 5257 5256 5254 5252 5250 5248 5247 5246 5245
5358 5356 5354 5353 5351 5349 5348 5346 5344 5343 5341 5339 5338 5336 5334 5333 5331 5330 5328 5326 5325 5323 5322 5320 5318 5317 5315 5314 5313 5312 5311 5309 5308 5306 5304 5303 5303 5302 5301 5300 5299 5298 5297 5296 5295 5295 5294 5293 5292 5291 5290 5289 5287 5286 5284 5283 5282 5281 5281 5280 5280 5279 5278 5277 5276 5275 5273 5272 5271 5269 5267 5265 5264 5262 5261 5259 5257 5255 5253 5251 5249 5248 5246 5245 5244 5243
5355 5353 5351 5350 5348 5347 5345 5343 5342 5340 5338 5337 5335 5333 5332 5330 5329 5327 5326 5324 5323 5321 5319 5318 5316 5314 5312 5311 5310 5308 5308 5306 5305 5303 5302 5300 5299 5298 5298 5297 5296 5295 5294 5293 5292 5291 5291 5290 5289 5288 5288 5286 5285 5283 5282 5281 5279 5278 5278 5278 5277 5276 5275 5274 5273 5272 5271 5270 5268 5266 5265 5263 5262 5260 5258 5257 5255 5253 5251 5249 5248 5246 5244 5243 5242 5241
5352 5350 5348 5347 5345 5344 5342 5341 5339 5337 5336 5334 5333 5331 5330 5328 5327 5325 5323 5322 5320 5319 5317 5316 5314 5312 5310 5308 5307 5305 5304 5303 5302 5300 5299 5298 5296 5296 5295 5293 5293 5292 5291 5290 5288 5288 5288 5287 5287 5286 5285 5284 5283 5281 5280 5278 5277 5276 5275 5275 5274 5273 5273 5272 5271 5270 5268 5267 5266 5264 5262 5261 5259 5258 5256 5254 5252 5250 5249 5247 5246 5244 5243 5241 5240 5238
5349 5348 5346 5344 5343 5341 5340 5338 5337 5335 5333 5332 5330 5329 5328 5326 5325 5323 5322 5320 5318 5317 5315 5314 5312 5310 5308 5306 5304 5303 5302 5300 5299 5298 5296 5295 5293 5292 5291 5290 5289 5288 5288 5287 5286 5285 5284 5284 5284 5283 5283 5282 5280 5279 5277 5276 5275 5274 5273 5273 5272 5271 5270 5268 5268 5267 5266 5264 5263 5261 5260 5258 5257 5255 5254 5252 5250 5248 5247 5245 5244 5242 5240 5239 5237 5236
5347 5345 5343 5342 5340 5339 5337 5336 5334 5333 5331 5330 5328 5327 5326 5324 5323 5321 5320 5318 5316 5315 5313 5312 5310 5308 5306 5304 5302 5300 5299 5298 5296 5295 5293 5292 5291 5289 5288 5288 5287 5286 5285 5284 5283 5282 5281 5281 5280 5280 5280 5279 5278 5277 5275 5273 5272 5271 5271 5271 5270 5269 5268 5266 5265 5264 5263 5262 5260 5259 5258 5256 5255 5253 5252 5250 5248 5246 5244 5243 5241 5239 5238 5236 5234 5233
5344 5343 5341 5339 5338 5336 5335 5333 5332 5330 5329 5328 5327 5325 5324 5323 5321 5320 5318 5316 5315 5313 5311 5310 5308 5307 5305 5303 5300 5298 5297 5295 5294 5293 5291 5290 5288 5287 5286 5284 5283 5283 5282 5281 5280 5279 5279 5278 5278 5277 5277 5276 5275 5274 5273 5271 5270 5269 5269 5268 5268 5267 5266 5264 5263 5262 5260 5259 5258 5257 5256 5254 5253 5252 5250 5248 5246 5244 5242 5240 5238 5237 5235 5233 5232 5231
5342 5340 5339 5337 5336 5334 5333 5331 5330 5328 5327 5326 5325 5323 5322 5321 5320 5318 5317 5315 5313 5312 5310 5309 5307 5306 5304 5302 5299 5297 5295 5293 5291 5290 5288 5287 5286 5284 5283 5282 5281 5280 5279 5279 5278 5277 5276 5276 5275 5275 5274 5274 5273 5272 5271 5269 5268 5267 5267 5266 5266 5266 5265 5263 5261 5260 5258 5257 5256 5255 5253 5253 5251 5250 5248 5246 5243 5242 5239 5238 5235 5233 5232 5230 5229 5228
5340 5338 5337 5335 5334 5332 5331 5329 5328 5327 5326 5324 5323 5322 5320 5319 5318 5316 5315 5313 5312 5310 5309 5307 5306 5304 5303 5301 5299 5296 5294 5291 5289 5288 5286 5285 5283 5282 5281 5279 5278 5277 5277 5276 5275 5275 5274 5273 5273 5272 5272 5271 5271 5270 5268 5267 5266 5265 5264 5264 5264 5263 5263 5261 5260 5258 5257 5255 5254 5253 5252 5250 5249 5248 5246 5243 5241 5239 5237 5235 5233 5231 5229 5227 5226 5225
5338 5337 5335 5333 5332 5331 5329 5328 5327 5325 5324 5323 5321 5320 5318 5317 5316 5314 5313 5312 5310 5309 5307 5306 5304 5303 5301 5299 5298 5296 5293 5291 5288 5286 5284 5283 5281 5280 5278 5277 5276 5275 5274 5273 5273 5272 5272 5272 5271 5270 5270 5269 5268 5267 5266 5265 5264 5263 5263 5262 5262 5262 5261 5260 5258 5257 5256 5254 5253 5251 5249 5248 5247 5245 5243 5241 5239 5237 5234 5232 5230 5228 5226 5225 5223 5222
5337 5335 5333 5332 5331 5329 5328 5327 5325 5324 5323 5321 5320 5318 5317 5315 5313 5312 5311 5310 5308 5307 5305 5304 5302 5300 5299 5297 5296 5294 5293 5290 5288 5286 5283 5281 5279 5278 5276 5275 5273 5273 5272 5271 5271 5270 5270 5269 5269 5268 5268 5267 5266 5265 5264 5263 5263 5262 5261 5261 5260 5259 5258 5258 5257 5255 5254 5253 5251 5249 5248 5246 5244 5243 5241 5239 5237 5234 5232 5230 5228 5226 5224 5223 5221 5220
5335 5333 5332 5331 5329 5328 5327 5325 5324 5323 5321 5319 5318 5316 5315 5313 5312 5310 5309 5308 5306 5305 5303 5302 5300 5298 5296 5295 5294 5292 5291 5289 5287 5285 5283 5281 5278 5276 5274 5273 5272 5271 5270 5269 5268 5268 5268 5268 5267 5267 5266 5265 5264 5263 5262 5262 5261 5261 5260 5259 5258 5258 5257 5256 5254 5253 5252 5250 5249 5247 5246 5244 5243 5241 5239 5237 5235 5232 5230 5228 5226 5224 5223 5222 5220 5219
5334 5332 5331 5329 5328 5327 5325 5324 5323 5321 5319 5318 5316 5314 5313 5311 5310 5308 5307 5306 5304 5303 5301 5300 5298 5296 5294 5293 5291 5290 5288 5287 5285 5284 5282 5280 5278 5276 5273 5272 5270 5269 5268 5267 5267 5266 5266 5265 5265 5265 5265 5264 5263 5262 5261 5260 5260 5259 5259 5258 5257 5256 5255 5253 5252 5251 5250 5248 5247 5245 5243 5242 5241 5239 5237 5235 5233 5230 5228 5226 5224 5223 5222 5220 5219 5217
5333 5331 5330 5328 5327 5325 5324 5323 5321 5319 5318 5316 5314 5313 5311 5309 5308 5307 5305 5304 5302 5301 5299 5297 5296 5294 5292 5291 5289 5288 5286 5284 5283 5282 5280 5278 5277 5275 5273 5271 5269 5268 5267 5266 5265 5264 5264 5263 5263 5263 5263 5263 5262 5260 5259 5259 5258 5258 5257 5257 5256 5255 5253 5252 5251 5249 5248 5246 5245 5243 5242 5240 5238 5237 5235 5233 5231 5228 5227 5225 5223 5222 5220 5218 5217 5215
5332 5330 5328 5327 5326 5324 5323 5321 5319 5318 5316 5314 5313 5311 5309 5307 5306 5304 5303 5302 5300 5298 5297 5295 5293 5292 5290 5289 5287 5285 5284 5282 5281 5279 5278 5277 5275 5273 5272 5270 5268 5267 5266 5265 5264 5263 5263 5262 5261 5261 5261 5261 5261 5260 5258 5258 5257 5257 5256 5255 5254 5253 5252 5250 5249 5248 5246 5244 5243 5241 5240 5238 5236 5235 5233 5231 5229 5227 5226 5224 5222 5220 5218 5217 5215 5214
5331 5329 5328 5326 5324 5323 5321 5319 5318 5316 5314 5313 5311 5309 5307 5305 5304 5302 5301 5299 5298 5296 5295 5293 5292 5290 5288 5287 5285 5283 5282 5280 5278 5277 5276 5274 5273 5272 5270 5269 5268 5266 5265 5264 5263 5262 5261 5260 5260 5259 5259 5259 5259 5259 5258 5257 5256 5256 5255 5253 5253 5251 5250 5249 5247 5246 5244 5243 5241 5240 5238 5236 5234 5233 5231 5228 5227 5226 5224 5223 5221 5219 5217 5215 5213 5212
5329 5328 5326 5325 5323 5321 5319 5318 5316 5314 5312 5311 5309 5307 5305 5304 5302 5300 5299 5298 5296 5294 5293 5291 5289 5288 5286 5285 5283 5282 5280 5278 5277 5275 5274 5273 5271 5270 5268 5267 5266 5265 5264 5263 5262 5261 5260 5259 5258 5258 5258 5258 5258 5258 5258 5257 5256 5255 5253 5252 5251 5250 5248 5247 5246 5244 5243 5241 5240 5238 5236 5234 5232 5230 5229 5227 5226 5224 5223 5221 5219 5218 5216 5214 5213 5211